Regional Weather Roundup
Issued by NWS Albany, NY

Home | Current Version | Previous Version | Text Only | Print | Product List | Glossary On
Versions: 1 2 3 4 5 6 7 8 9 10 11 12 13 14 15 16 17 18 19 20 21 22 23 24 25 26 27 28 29 30 31 32 33 34 35 36 37 38 39 40 41 42 43 44 45 46 47 48 49 50
000
ASUS41 KALY 210210
RWRALY

NEW YORK STATE HOURLY WEATHER ROUNDUP
NATIONAL WEATHER SERVICE ALBANY NY
1000 PM EDT MON APR 20 2015

NOTE: "FAIR" INDICATES FEW OR NO CLOUDS BELOW 12,000 FEET WITH NO
SIGNIFICANT WEATHER AND/OR NO OBSTRUCTIONS TO VISIBILITY.

NYZ032-033-038>043-046>054-057>066-NYZ062>081-210300-
EAST


CITY           SKY/WX    TMP DP  RH WIND       PRES   REMARKS
ALBANY         CLOUDY    53  46  77 CALM      29.66F
GLENS FALLS    CLOUDY    49  44  83 NW3       29.68F
POUGHKEEPSIE   CLOUDY    56  51  84 VRB5      29.64S
NEWBURGH       CLOUDY    54  54 100 E9        29.65S FOG
MONTGOMERY     CLOUDY    53  32  44 N6        29.63S FOG
WHITE PLAINS   FOG       54  53  97 E5        29.64F VSB 1/4
ISLIP          FOG       54  53  97 E7        29.64F VSB 1/8
NEW YORK CITY  FOG       51  50  96 NE8       29.64R VSB 1/4
CENTRAL PARK   FOG       52  52 100 VRB6      29.65F VSB 3/4
$$

NYZ005>009-017-018-044>046-055-056-210300-
CENTRAL


CITY           SKY/WX    TMP DP  RH WIND       PRES   REMARKS
FULTON         TSTM      53  49  86 SE9G17    29.55R FOG
SYRACUSE       CLOUDY    53  49  86 W16       29.59R THUNDER
ROME           CLOUDY    53  47  79 E16       29.59F
ELMIRA         TSTM      59  55  87 E6        29.53R
BINGHAMTON     LGT RAIN  53  50  89 SW8       29.58R
MONTICELLO     CLOUDY    50  50 100 E13       29.63F VSB 1/4
$$

NYZ026>034-041>043-210300-
NORTH


CITY           SKY/WX    TMP DP  RH WIND       PRES   REMARKS
WATERTOWN      CLOUDY    58  50  75 S13G21    29.48F
FORT DRUM      NOT AVBL
MASSENA        LGT RAIN  54  45  71 SE9       29.59F
SARANAC LAKE   CLOUDY    51  43  74 S16G24    29.59F
PLATTSBURGH    CLOUDY    50  41  71 VRB7G18   29.70S
$$

NYZ001>004-010>016-019>021-210300-
WEST


CITY           SKY/WX    TMP DP  RH WIND       PRES   REMARKS
NIAGARA FALLS  MOCLDY    46  42  86 S10       29.51R
BUFFALO        MOCLDY    49  42  77 SW16G29   29.52R
DUNKIRK        CLOUDY    50  42  74 SW18G26   29.55R
JAMESTOWN      CLOUDY    46  41  81 W12G17    29.54F
WELLSVILLE     MOCLDY    53  48  83 W5        29.53F
ROCHESTER      CLOUDY    55  49  80 W10       29.52S
PENN YAN       TSTM      52  50  93 S6        29.54R
$$

             KEY
       WCI = WIND CHILL INDEX
       VSB = VISIBILITY
       HX  = HEAT INDEX
$$


USA.gov is the U.S. government's official web portal to all federal, state and local government web resources and services.